Location: Caltech
(34.1382°N, 118.1253°W)
Time: 12:03:31
(UTC-07:00)

Iridium 72 - Visible Passes

Search period start: 24 June 2017 00:00
Search period end: 04 July 2017 00:00
Orbit: 776 x 779 km, 86.4° (Epoch: 23 June)

Date Brightness Start Highest point End Pass type
(mag) Time Alt. Az. Time Alt. Az. Time Alt. Az.
24 Jun 6.5 20:38:36 10° SE 20:43:02 29° E 20:47:28 10° NNE visible
24 Jun 7.5 22:19:23 10° SW 22:23:39 25° W 22:27:57 10° NNW visible
25 Jun 6.4 21:44:57 10° SSW 21:49:59 49° W 21:55:02 10° N visible
26 Jun 5.5 21:11:14 10° S 21:16:26 85° E 21:21:40 10° N visible
27 Jun 6.0 20:38:06 10° SSE 20:43:00 43° E 20:47:55 10° NNE visible
27 Jun 8.1 22:20:31 10° WSW 22:23:53 17° WNW 22:27:16 10° NW visible
28 Jun 7.2 21:45:29 10° SSW 21:50:08 33° W 21:54:49 10° NNW visible
29 Jun 6.0 21:11:22 10° S 21:16:31 64° W 21:21:42 10° N visible
30 Jun 5.6 20:37:52 10° S 20:43:01 65° E 20:48:10 10° N visible
30 Jun 8.4 22:22:35 10° W 22:24:10 11° WNW 22:25:44 10° WNW visible
01 Jul 7.8 21:46:20 10° SW 21:50:20 22° W 21:54:22 10° NNW visible
02 Jul 6.8 21:11:43 10° SSW 21:16:38 42° W 21:21:35 10° NNW visible
03 Jul 5.6 20:37:52 10° S 20:43:04 84° W 20:48:18 10° N visible
